カタログに戻る

COSMOS 2251 DEB

運用中LEO
NORAD 35435·DEBRIS·🇷🇺 Russia

打ち上げ Jun 16, 1993 から Plesetsk Cosmodrome

Loading…

次のパス (今後24時間)

TLE

最新Source: Space-Track

元期: Sep 13, 2026, 08:28 UTC

1 35435U 93036AKD 26256.35296887  .00007526  00000-0  86248-3 0  9991
2 35435  74.0060 279.9505 0014155 302.2802  70.3568 14.86011993916095

AllMySatでCOSMOS 2251 DEBをリアルタイム追跡

Download on the App Store